Location: Winthrop
(48.4780°N, 120.1850°W)
Time: 02:45:14
(UTC-07:00)

Transit 2A - Pass Details

Date: 22 June 2024
Orbit: 591 x 960 km, 66.7° (Epoch: 23 July)

Event Time Altitude Azimuth Distance (km) Brightness Sun altitude
Rises 21:55:28 0° 322° (NW) 3,421 12.0 -6.8°
Reaches altitude 10° 21:58:40 10° 341° (NNW) 2,547 10.0 -7.1°
Maximum altitude 22:02:50 19° 25° (NNE) 2,035 8.5 -7.6°
Drops below altitude 10° 22:07:10 10° 69° (ENE) 2,664 8.6 -8.1°
Sets 22:10:36 0° 87° (E) 3,632 9.1 -8.4°
